Location: Silverdale
(47.6506°N, 122.6941°W)
Time: 23:41:49
(UTC+00:00)

A-11 Canister half - Pass Details

Date: 04 October 2022
Orbit: 1524 x 1685 km, 47.3° (Epoch: 05 December)

Event Time Altitude Azimuth Distance (km) Brightness Sun altitude
Rises 03:15:46 0° 280° (W) 4,687 13.4 -15.9°
Reaches altitude 10° 03:18:46 10° 280° (W) 3,714 12.4 -16.4°
Maximum altitude 03:28:10 81° 195° (SSW) 1,589 9.0 -18.0°
Enters shadow 03:34:19 26° 112° (ESE) 2,732 9.7 -19.0°
